CFG65 EDDK-EDDS

Flight info

Callsign CFG65
Flight time N/A
Altitude 23000
Route KUMIK8F/13L L603 BOMBI N850 KRH T128 BADSO BADSO2A
Aircraft A339/H-SADE1E2E3GHIJ3J5M1P2RWXY/LB2D1

Departure

Time 2026-04-22 09:06
Airport Cologne Bonn Airport (EDDK)

Arrival

Time N/A
Airport Stuttgart Airport (EDDS)
Time Latitude Longitude Altitude Speed Heading
2026-04-22 08:29 50.88063 7.12194 240 ft 0 kts 216°
2026-04-22 08:58 50.88064 7.12195 236 ft 1 kts 216°
2026-04-22 08:58 50.88073 7.12205 242 ft 1 kts 216°
2026-04-22 08:58 50.88081 7.12215 242 ft 1 kts 208°
2026-04-22 08:58 50.88089 7.12223 242 ft 1 kts 195°
2026-04-22 08:59 50.88099 7.12228 240 ft 1 kts 187°
2026-04-22 08:59 50.88109 7.12230 242 ft 1 kts 179°
2026-04-22 08:59 50.88119 7.12231 242 ft 1 kts 169°
2026-04-22 08:59 50.88129 7.12229 242 ft 1 kts 158°
2026-04-22 09:00 50.88139 7.12223 242 ft 1 kts 143°
2026-04-22 09:00 50.88146 7.12217 242 ft 0 kts 127°
2026-04-22 09:03 50.88135 7.12240 241 ft 6 kts 127°
2026-04-22 09:03 50.88105 7.12304 242 ft 8 kts 126°
2026-04-22 09:03 50.88068 7.12388 241 ft 10 kts 123°
2026-04-22 09:03 50.88030 7.12492 241 ft 12 kts 118°
2026-04-22 09:04 50.87995 7.12578 242 ft 9 kts 126°
2026-04-22 09:04 50.87987 7.12678 237 ft 8 kts 83°
2026-04-22 09:04 50.87997 7.12757 240 ft 6 kts 78°
2026-04-22 09:04 50.88004 7.12815 242 ft 5 kts 79°
2026-04-22 09:05 50.88008 7.12877 243 ft 8 kts 88°
2026-04-22 09:05 50.87972 7.13012 246 ft 30 kts 129°
2026-04-22 09:05 50.87563 7.13616 251 ft 128 kts 139°
2026-04-22 09:05 50.86728 7.14804 456 ft 182 kts 138°
2026-04-22 09:06 50.85748 7.16135 1342 ft 183 kts 139°
2026-04-22 09:06 50.84811 7.17394 2645 ft 175 kts 139°
2026-04-22 09:06 50.83880 7.18710 3223 ft 176 kts 134°
2026-04-22 09:06 50.83080 7.20132 3261 ft 176 kts 117°
2026-04-22 09:07 50.82723 7.22011 3445 ft 192 kts 93°
2026-04-22 09:07 50.82775 7.24249 3795 ft 215 kts 86°
2026-04-22 09:07 50.82871 7.26706 4313 ft 231 kts 86°
2026-04-22 09:07 50.82946 7.29156 4829 ft 211 kts 86°
2026-04-22 09:08 50.83008 7.31338 4949 ft 187 kts 87°
2026-04-22 09:08 50.83030 7.33419 4995 ft 194 kts 88°
2026-04-22 09:08 50.83032 7.35504 4993 ft 184 kts 89°
2026-04-22 09:08 50.83047 7.37651 5006 ft 216 kts 88°
2026-04-22 09:09 50.83078 7.40186 5004 ft 245 kts 88°
2026-04-22 09:09 50.83110 7.42911 5014 ft 249 kts 88°
2026-04-22 09:09 50.83139 7.45663 4990 ft 252 kts 88°
2026-04-22 09:09 50.83172 7.48442 5350 ft 253 kts 88°
2026-04-22 09:10 50.83205 7.51224 6268 ft 251 kts 88°
2026-04-22 09:10 50.83232 7.53995 7077 ft 254 kts 88°
2026-04-22 09:10 50.83259 7.56801 7893 ft 257 kts 88°
2026-04-22 09:10 50.83282 7.59642 8672 ft 260 kts 89°
2026-04-22 09:11 50.83285 7.62468 9502 ft 260 kts 89°
2026-04-22 09:11 50.83294 7.65335 10352 ft 262 kts 89°
2026-04-22 09:11 50.83315 7.68226 11138 ft 264 kts 88°
2026-04-22 09:11 50.83339 7.71140 11943 ft 265 kts 88°
2026-04-22 09:12 50.83364 7.74053 12759 ft 265 kts 88°
2026-04-22 09:12 50.83391 7.76962 13620 ft 264 kts 88°
2026-04-22 09:12 50.83419 7.79862 14453 ft 263 kts 88°
2026-04-22 09:12 50.83446 7.82739 15234 ft 261 kts 88°
2026-04-22 09:13 50.83471 7.85560 16024 ft 259 kts 87°
2026-04-22 09:13 50.83495 7.88383 16850 ft 255 kts 87°
2026-04-22 09:13 50.83519 7.91163 17688 ft 250 kts 87°
2026-04-22 09:13 50.83542 7.93881 18559 ft 244 kts 87°
2026-04-22 09:14 50.83563 7.96530 19330 ft 238 kts 86°
2026-04-22 09:14 50.83584 7.99142 19929 ft 239 kts 86°
2026-04-22 09:14 50.83609 8.01829 20258 ft 251 kts 86°
2026-04-22 09:14 50.83613 8.04675 20522 ft 266 kts 90°
2026-04-22 09:15 50.83273 8.07637 20797 ft 283 kts 104°
2026-04-22 09:15 50.82419 8.10502 21065 ft 302 kts 119°
2026-04-22 09:15 50.81195 8.13292 21341 ft 316 kts 121°
2026-04-22 09:15 50.79923 8.16207 21612 ft 329 kts 121°
2026-04-22 09:16 50.78616 8.19258 21890 ft 341 kts 120°
2026-04-22 09:16 50.77276 8.22425 22162 ft 352 kts 119°
2026-04-22 09:16 50.75916 8.25731 22313 ft 367 kts 119°
2026-04-22 09:16 50.74492 8.29190 22324 ft 383 kts 120°
2026-04-22 09:17 50.73014 8.32720 22334 ft 387 kts 120°
2026-04-22 09:17 50.71514 8.36240 22331 ft 387 kts 121°
2026-04-22 09:17 50.69793 8.39522 22332 ft 391 kts 131°
2026-04-22 09:17 50.67735 8.42258 22335 ft 395 kts 142°
2026-04-22 09:18 50.65355 8.44447 22345 ft 398 kts 149°
2026-04-22 09:18 50.62896 8.46457 22343 ft 398 kts 149°
2026-04-22 09:18 50.60445 8.48485 22338 ft 398 kts 149°
2026-04-22 09:18 50.57987 8.50509 22346 ft 399 kts 150°
2026-04-22 09:19 50.55536 8.52538 22350 ft 399 kts 149°
2026-04-22 09:19 50.53085 8.54582 22343 ft 399 kts 149°
2026-04-22 09:19 50.50637 8.56636 22352 ft 399 kts 149°
2026-04-22 09:19 50.48191 8.58696 22348 ft 399 kts 149°
2026-04-22 09:20 50.45773 8.60721 22360 ft 400 kts 150°
2026-04-22 09:20 50.43210 8.62456 22336 ft 402 kts 158°
2026-04-22 09:20 50.40532 8.63739 22338 ft 403 kts 161°
2026-04-22 09:20 50.37840 8.64977 22360 ft 403 kts 161°
2026-04-22 09:21 50.35148 8.66228 22341 ft 403 kts 161°
2026-04-22 09:21 50.32460 8.67486 22343 ft 403 kts 161°
2026-04-22 09:21 50.29774 8.68746 22340 ft 404 kts 161°
2026-04-22 09:21 50.27097 8.70001 22342 ft 404 kts 161°
2026-04-22 09:22 50.24400 8.71266 22342 ft 404 kts 161°
2026-04-22 09:22 50.21712 8.72527 22342 ft 404 kts 161°
2026-04-22 09:22 50.19019 8.73787 22340 ft 404 kts 161°
2026-04-22 09:22 50.16327 8.75043 22343 ft 404 kts 161°
2026-04-22 09:23 50.13670 8.76281 22343 ft 404 kts 161°
2026-04-22 09:23 50.10974 8.77535 22340 ft 404 kts 161°
2026-04-22 09:23 50.08278 8.78741 22340 ft 404 kts 165°
2026-04-22 09:23 50.05485 8.79319 22344 ft 407 kts 176°
2026-04-22 09:24 50.02652 8.79029 22350 ft 408 kts 188°
2026-04-22 09:24 49.99878 8.78067 22345 ft 409 kts 192°
2026-04-22 09:24 49.97110 8.77062 22344 ft 409 kts 192°
2026-04-22 09:24 49.94337 8.76080 22337 ft 409 kts 192°
2026-04-22 09:25 49.91560 8.75112 22346 ft 409 kts 192°
2026-04-22 09:25 49.88788 8.74154 22333 ft 408 kts 192°
2026-04-22 09:25 49.86015 8.73199 22334 ft 408 kts 192°
2026-04-22 09:25 49.83235 8.72244 22327 ft 409 kts 192°
2026-04-22 09:26 49.80497 8.71306 22329 ft 408 kts 192°
2026-04-22 09:26 49.77725 8.70357 22320 ft 409 kts 192°
2026-04-22 09:26 49.74950 8.69406 22311 ft 408 kts 192°
2026-04-22 09:26 49.72151 8.68720 22304 ft 407 kts 184°
2026-04-22 09:27 49.69322 8.68361 22312 ft 408 kts 184°
2026-04-22 09:27 49.66498 8.68004 22311 ft 407 kts 184°
2026-04-22 09:27 49.63672 8.67639 22312 ft 407 kts 184°
2026-04-22 09:27 49.60847 8.67266 22315 ft 408 kts 184°
2026-04-22 09:28 49.58026 8.66884 22319 ft 407 kts 184°
2026-04-22 09:28 49.55203 8.66506 22319 ft 407 kts 184°
2026-04-22 09:28 49.52413 8.66134 22320 ft 407 kts 184°
2026-04-22 09:28 49.49588 8.65760 22319 ft 408 kts 184°
2026-04-22 09:29 49.46765 8.65384 22323 ft 407 kts 184°
2026-04-22 09:29 49.43940 8.65009 22322 ft 407 kts 184°
2026-04-22 09:29 49.41119 8.64635 22321 ft 407 kts 184°
2026-04-22 09:29 49.38298 8.64261 22317 ft 407 kts 184°
2026-04-22 09:30 49.35479 8.63888 22211 ft 405 kts 184°
2026-04-22 09:30 49.32671 8.63518 21588 ft 406 kts 184°
2026-04-22 09:30 49.29853 8.63117 20661 ft 407 kts 185°
2026-04-22 09:30 49.27088 8.62684 19771 ft 403 kts 185°
2026-04-22 09:31 49.24320 8.62240 18869 ft 398 kts 185°
2026-04-22 09:31 49.21583 8.61804 17907 ft 393 kts 185°
2026-04-22 09:32 49.10765 8.60235 14157 ft 367 kts 176°